Time,TemperatureF,DewpointF,PressureIn,WindDirection,WindDirectionDegrees,WindSpeedMPH,WindSpeedGustMPH,Humidity,HourlyPrecipIn,Conditions,Clouds,dailyrainin,SoftwareType,DateUTC
2013-09-21 00:00:00,68.1,59.9,29.86,SW,226,0.0,5.0,75,0.00,,CLR,0.00,VWS V14.01,2013-09-21 04:00:00,
2013-09-21 00:01:00,68.1,59.9,29.86,West,262,3.0,5.0,75,0.00,,CLR,0.00,VWS V14.01,2013-09-21 04:01:00,
2013-09-21 00:02:00,68.2,60.0,29.86,SW,236,3.0,5.0,75,0.00,,CLR,0.00,VWS V14.01,2013-09-21 04:02:00,
2013-09-21 00:07:00,68.1,60.3,29.86,WSW,245,0.0,3.0,76,0.00,,CLR,0.00,VWS V14.01,2013-09-21 04:07:00,
2013-09-21 00:12:00,68.1,60.3,29.86,SSW,212,1.0,4.0,76,0.00,,CLR,0.00,VWS V14.01,2013-09-21 04:12:00,
2013-09-21 00:17:00,68.0,60.2,29.85,SW,233,3.0,5.0,76,0.00,,CLR,0.00,VWS V14.01,2013-09-21 04:17:00,
2013-09-21 00:22:00,68.0,60.2,29.85,SSW,212,3.0,5.0,76,0.00,,CLR,0.00,VWS V14.01,2013-09-21 04:22:00,
2013-09-21 00:28:00,67.8,60.0,29.85,SW,235,3.0,5.0,76,0.00,,CLR,0.00,VWS V14.01,2013-09-21 04:28:00,
2013-09-21 00:30:00,67.9,60.1,29.85,SSW,203,2.0,6.0,76,0.00,,OVC,0.00,VWS V14.01,2013-09-21 04:30:00,
2013-09-21 00:33:00,67.8,60.0,29.85,SSW,200,2.0,3.0,76,0.00,,CLR,0.00,VWS V14.01,2013-09-21 04:33:00,
2013-09-21 00:38:00,67.8,60.0,29.84,SW,226,3.0,6.0,76,0.00,,CLR,0.00,VWS V14.01,2013-09-21 04:38:00,
2013-09-21 00:43:00,67.7,60.2,29.84,SW,221,4.0,6.0,77,0.00,,CLR,0.00,VWS V14.01,2013-09-21 04:43:00,
2013-09-21 00:48:00,67.7,60.2,29.84,SW,218,3.0,6.0,77,0.00,,CLR,0.00,VWS V14.01,2013-09-21 04:48:00,
2013-09-21 00:53:00,67.9,60.1,29.84,SW,231,3.0,6.0,76,0.00,,CLR,0.00,VWS V14.01,2013-09-21 04:53:00,
2013-09-21 00:58:00,67.9,60.1,29.84,SW,229,4.0,7.0,76,0.00,,CLR,0.00,VWS V14.01,2013-09-21 04:58:00,
2013-09-21 01:00:00,67.9,60.1,29.84,SW,218,4.0,7.0,76,0.00,,OVC,0.00,VWS V14.01,2013-09-21 05:00:00,
2013-09-21 01:04:00,67.9,60.1,29.84,SSW,205,3.0,5.0,76,0.00,,CLR,0.00,VWS V14.01,2013-09-21 05:04:00,
2013-09-21 01:09:00,67.8,60.0,29.83,WSW,241,6.0,8.0,76,0.00,,CLR,0.00,VWS V14.01,2013-09-21 05:09:00,
2013-09-21 01:14:00,67.6,59.8,29.83,SW,216,4.0,8.0,76,0.00,,CLR,0.00,VWS V14.01,2013-09-21 05:14:00,
2013-09-21 01:19:00,67.6,59.8,29.84,SW,226,6.0,8.0,76,0.00,,CLR,0.00,VWS V14.01,2013-09-21 05:19:00,
2013-09-21 01:24:00,67.6,59.8,29.84,SSW,210,4.0,8.0,76,0.00,,CLR,0.00,VWS V14.01,2013-09-21 05:24:00,
2013-09-21 01:29:00,67.5,60.0,29.84,SW,232,5.0,8.0,77,0.00,,CLR,0.00,VWS V14.01,2013-09-21 05:29:00,
2013-09-21 01:30:00,67.4,60.0,29.84,SSW,211,4.0,8.0,77,0.00,,OVC,0.00,VWS V14.01,2013-09-21 05:30:00,
2013-09-21 01:34:00,67.3,59.8,29.84,SSW,213,3.0,4.0,77,0.00,,CLR,0.00,VWS V14.01,2013-09-21 05:34:00,
2013-09-21 01:39:00,67.4,60.0,29.83,SW,226,5.0,7.0,77,0.00,,CLR,0.00,VWS V14.01,2013-09-21 05:39:00,
2013-09-21 01:44:00,67.4,60.0,29.83,SW,221,4.0,8.0,77,0.00,,CLR,0.00,VWS V14.01,2013-09-21 05:44:00,
2013-09-21 01:50:00,67.3,59.8,29.83,SW,226,5.0,8.0,77,0.00,,CLR,0.00,VWS V14.01,2013-09-21 05:50:00,
2013-09-21 01:55:00,67.3,59.8,29.83,SSW,211,5.0,8.0,77,0.00,,CLR,0.00,VWS V14.01,2013-09-21 05:55:00,
2013-09-21 02:00:00,67.2,59.8,29.82,SW,218,5.0,8.0,77,0.00,,CLR,0.00,VWS V14.01,2013-09-21 06:00:00,
2013-09-21 02:05:00,67.1,60.0,29.82,WSW,242,4.0,7.0,78,0.00,,CLR,0.00,VWS V14.01,2013-09-21 06:05:00,
2013-09-21 02:10:00,67.0,59.9,29.82,SW,225,3.0,7.0,78,0.00,,CLR,0.00,VWS V14.01,2013-09-21 06:10:00,
2013-09-21 02:15:00,66.7,59.6,29.82,SSW,211,3.0,7.0,78,0.00,,CLR,0.00,VWS V14.01,2013-09-21 06:15:00,
2013-09-21 02:20:00,66.7,60.0,29.82,SW,214,3.0,7.0,79,0.00,,CLR,0.00,VWS V14.01,2013-09-21 06:20:00,
2013-09-21 02:25:00,66.6,59.9,29.82,SW,216,3.0,9.0,79,0.00,,CLR,0.00,VWS V14.01,2013-09-21 06:25:00,
2013-09-21 02:30:00,66.6,59.9,29.82,SSW,207,3.0,9.0,79,0.00,,CLR,0.00,VWS V14.01,2013-09-21 06:30:00,
2013-09-21 02:36:00,66.4,59.7,29.81,SSW,207,2.0,4.0,79,0.00,,CLR,0.00,VWS V14.01,2013-09-21 06:36:00,
2013-09-21 02:41:00,66.2,59.5,29.81,SSW,212,3.0,4.0,79,0.00,,CLR,0.00,VWS V14.01,2013-09-21 06:41:00,
2013-09-21 02:46:00,66.1,59.8,29.81,South,188,2.0,4.0,80,0.00,,CLR,0.00,VWS V14.01,2013-09-21 06:46:00,
2013-09-21 02:51:00,65.9,59.6,29.81,SW,217,3.0,5.0,80,0.00,,CLR,0.00,VWS V14.01,2013-09-21 06:51:00,
2013-09-21 02:56:00,65.8,59.5,29.81,SSW,207,3.0,5.0,80,0.00,,CLR,0.00,VWS V14.01,2013-09-21 06:56:00,
2013-09-21 03:00:00,65.6,59.6,29.81,SW,222,1.0,5.0,81,0.00,,OVC,0.00,VWS V14.01,2013-09-21 07:00:00,
2013-09-21 03:01:00,65.7,59.4,29.81,SW,215,0.0,5.0,80,0.00,,CLR,0.00,VWS V14.01,2013-09-21 07:01:00,
2013-09-21 03:06:00,65.5,59.5,29.81,SW,222,1.0,3.0,81,0.00,,CLR,0.00,VWS V14.01,2013-09-21 07:06:00,
2013-09-21 03:11:00,65.5,59.5,29.80,SW,231,6.0,6.0,81,0.00,,CLR,0.00,VWS V14.01,2013-09-21 07:11:00,
2013-09-21 03:16:00,65.4,59.4,29.80,SSW,211,1.0,6.0,81,0.00,,CLR,0.00,VWS V14.01,2013-09-21 07:16:00,
2013-09-21 03:21:00,65.5,59.5,29.80,SSW,203,2.0,6.0,81,0.00,,CLR,0.00,VWS V14.01,2013-09-21 07:21:00,
2013-09-21 03:27:00,65.4,59.4,29.80,SSW,200,2.0,6.0,81,0.00,,CLR,0.00,VWS V14.01,2013-09-21 07:27:00,
2013-09-21 03:30:00,65.2,59.6,29.80,SSW,205,2.0,6.0,82,0.00,,OVC,0.00,VWS V14.01,2013-09-21 07:30:00,
2013-09-21 03:32:00,65.2,59.6,29.80,SSW,205,3.0,6.0,82,0.00,,CLR,0.00,VWS V14.01,2013-09-21 07:32:00,
2013-09-21 03:37:00,65.4,59.8,29.80,SSW,210,5.0,7.0,82,0.00,,CLR,0.00,VWS V14.01,2013-09-21 07:37:00,
2013-09-21 03:42:00,65.8,59.8,29.79,SSW,208,4.0,9.0,81,0.00,,CLR,0.00,VWS V14.01,2013-09-21 07:42:00,
2013-09-21 03:47:00,65.7,59.7,29.79,SSW,202,2.0,9.0,81,0.00,,CLR,0.00,VWS V14.01,2013-09-21 07:47:00,
2013-09-21 03:52:00,65.5,59.5,29.79,South,188,3.0,9.0,81,0.00,,CLR,0.00,VWS V14.01,2013-09-21 07:52:00,
2013-09-21 03:57:00,65.4,59.8,29.79,SW,222,5.0,9.0,82,0.00,,CLR,0.00,VWS V14.01,2013-09-21 07:57:00,
2013-09-21 04:00:00,65.6,60.0,29.79,SSW,200,2.0,9.0,82,0.00,,OVC,0.00,VWS V14.01,2013-09-21 08:00:00,
2013-09-21 04:02:00,65.6,60.0,29.79,SSW,209,3.0,9.0,82,0.00,,CLR,0.00,VWS V14.01,2013-09-21 08:02:00,
2013-09-21 04:07:00,65.4,59.4,29.79,SW,215,3.0,4.0,81,0.00,,CLR,0.00,VWS V14.01,2013-09-21 08:07:00,
2013-09-21 04:12:00,65.1,59.5,29.79,SW,229,3.0,4.0,82,0.00,,CLR,0.00,VWS V14.01,2013-09-21 08:12:00,
2013-09-21 04:17:00,65.0,59.7,29.79,SW,215,3.0,4.0,83,0.00,,CLR,0.00,VWS V14.01,2013-09-21 08:17:00,
2013-09-21 04:23:00,65.0,59.7,29.79,SW,225,4.0,5.0,83,0.00,,CLR,0.00,VWS V14.01,2013-09-21 08:23:00,
2013-09-21 04:28:00,65.1,59.8,29.79,WSW,241,5.0,5.0,83,0.00,,CLR,0.00,VWS V14.01,2013-09-21 08:28:00,
2013-09-21 04:30:00,65.3,60.0,29.79,SW,228,5.0,6.0,83,0.00,,OVC,0.00,VWS V14.01,2013-09-21 08:30:00,
2013-09-21 04:33:00,65.3,60.0,29.79,SW,228,5.0,6.0,83,0.00,,CLR,0.00,VWS V14.01,2013-09-21 08:33:00,
2013-09-21 04:38:00,65.4,60.1,29.79,SW,230,5.0,6.0,83,0.00,,CLR,0.00,VWS V14.01,2013-09-21 08:38:00,
2013-09-21 04:43:00,65.6,60.0,29.79,SW,226,5.0,6.0,82,0.00,,CLR,0.00,VWS V14.01,2013-09-21 08:43:00,
2013-09-21 04:48:00,65.7,60.1,29.79,SW,231,3.0,6.0,82,0.00,,CLR,0.00,VWS V14.01,2013-09-21 08:48:00,
2013-09-21 04:53:00,65.7,60.1,29.79,SW,224,2.0,9.0,82,0.00,,CLR,0.00,VWS V14.01,2013-09-21 08:53:00,
2013-09-21 04:58:00,65.6,60.0,29.78,SSW,203,2.0,9.0,82,0.00,,CLR,0.00,VWS V14.01,2013-09-21 08:58:00,
2013-09-21 05:00:00,65.4,60.1,29.79,SSW,205,3.0,9.0,83,0.00,,OVC,0.00,VWS V14.01,2013-09-21 09:00:00,
2013-09-21 05:03:00,65.3,60.0,29.79,SSW,203,1.0,3.0,83,0.00,,CLR,0.00,VWS V14.01,2013-09-21 09:03:00,
2013-09-21 05:08:00,65.1,59.8,29.79,SSW,196,3.0,5.0,83,0.00,,CLR,0.00,VWS V14.01,2013-09-21 09:08:00,
2013-09-21 05:14:00,65.0,59.7,29.78,SSW,204,2.0,5.0,83,0.00,,CLR,0.00,VWS V14.01,2013-09-21 09:14:00,
2013-09-21 05:19:00,64.8,59.9,29.78,SSW,212,3.0,5.0,84,0.00,,CLR,0.00,VWS V14.01,2013-09-21 09:19:00,
2013-09-21 05:24:00,64.6,59.7,29.78,South,191,3.0,5.0,84,0.00,,CLR,0.00,VWS V14.01,2013-09-21 09:24:00,
2013-09-21 05:29:00,64.7,60.1,29.77,SSW,204,3.0,5.0,85,0.00,,CLR,0.00,VWS V14.01,2013-09-21 09:29:00,
2013-09-21 05:30:00,64.7,59.8,29.78,SSW,211,4.0,6.0,84,0.00,,OVC,0.00,VWS V14.01,2013-09-21 09:30:00,
2013-09-21 05:34:00,64.7,59.8,29.78,SSW,193,3.0,7.0,84,0.00,,CLR,0.00,VWS V14.01,2013-09-21 09:34:00,
2013-09-21 05:39:00,64.7,59.8,29.77,SW,230,5.0,7.0,84,0.00,,CLR,0.00,VWS V14.01,2013-09-21 09:39:00,
2013-09-21 05:44:00,64.7,59.8,29.78,SW,225,4.0,9.0,84,0.00,,CLR,0.00,VWS V14.01,2013-09-21 09:44:00,
2013-09-21 05:50:00,64.7,59.8,29.78,SSW,203,4.0,9.0,84,0.00,,CLR,0.00,VWS V14.01,2013-09-21 09:50:00,
2013-09-21 05:55:00,64.7,60.1,29.78,SSW,208,5.0,9.0,85,0.00,,CLR,0.00,VWS V14.01,2013-09-21 09:55:00,
2013-09-21 06:00:00,64.6,60.0,29.78,SW,216,5.0,9.0,85,0.00,,CLR,0.00,VWS V14.01,2013-09-21 10:00:00,
2013-09-21 06:05:00,64.5,59.9,29.78,SSW,204,3.0,4.0,85,0.00,,CLR,0.00,VWS V14.01,2013-09-21 10:05:00,
2013-09-21 06:10:00,64.3,59.7,29.78,SE,141,1.0,4.0,85,0.00,,CLR,0.00,VWS V14.01,2013-09-21 10:10:00,
2013-09-21 06:15:00,64.2,59.9,29.78,SW,229,4.0,5.0,86,0.00,,CLR,0.00,VWS V14.01,2013-09-21 10:15:00,
2013-09-21 06:20:00,64.1,59.8,29.78,SSW,198,3.0,5.0,86,0.00,,CLR,0.00,VWS V14.01,2013-09-21 10:20:00,
2013-09-21 06:25:00,64.0,60.1,29.78,SSW,200,3.0,5.0,87,0.00,,CLR,0.00,VWS V14.01,2013-09-21 10:25:00,
2013-09-21 06:30:00,64.1,60.2,29.78,SW,215,4.0,5.0,87,0.00,,CLR,0.00,VWS V14.01,2013-09-21 10:30:00,
2013-09-21 06:35:00,64.2,60.3,29.77,SSW,212,3.0,4.0,87,0.00,,CLR,0.00,VWS V14.01,2013-09-21 10:35:00,
2013-09-21 06:41:00,64.1,60.2,29.77,SSW,212,3.0,4.0,87,0.00,,CLR,0.00,VWS V14.01,2013-09-21 10:41:00,
2013-09-21 06:46:00,64.1,60.2,29.77,SSW,200,3.0,4.0,87,0.00,,CLR,0.00,VWS V14.01,2013-09-21 10:46:00,
2013-09-21 06:51:00,64.2,60.3,29.77,SSW,205,3.0,4.0,87,0.00,,CLR,0.00,VWS V14.01,2013-09-21 10:51:00,
2013-09-21 06:56:00,64.2,60.3,29.77,SSW,205,3.0,4.0,87,0.00,,CLR,0.00,VWS V14.01,2013-09-21 10:56:00,
2013-09-21 07:00:00,64.5,60.5,29.77,SSW,207,2.0,4.0,87,0.00,,OVC,0.00,VWS V14.01,2013-09-21 11:00:00,
2013-09-21 07:01:00,64.4,60.5,29.77,SW,226,3.0,4.0,87,0.00,,CLR,0.00,VWS V14.01,2013-09-21 11:01:00,
2013-09-21 07:06:00,64.6,60.7,29.77,SSW,205,1.0,3.0,87,0.00,,CLR,0.00,VWS V14.01,2013-09-21 11:06:00,
2013-09-21 07:11:00,64.5,60.5,29.76,SSW,204,2.0,4.0,87,0.00,,CLR,0.00,VWS V14.01,2013-09-21 11:11:00,
2013-09-21 07:16:00,64.6,60.7,29.76,SW,215,1.0,4.0,87,0.00,,CLR,0.00,VWS V14.01,2013-09-21 11:16:00,
2013-09-21 07:21:00,64.6,60.7,29.76,SSW,210,2.0,5.0,87,0.00,,CLR,0.00,VWS V14.01,2013-09-21 11:21:00,
2013-09-21 07:26:00,64.7,61.1,29.76,SSW,210,2.0,5.0,88,0.00,,CLR,0.00,VWS V14.01,2013-09-21 11:26:00,
2013-09-21 07:30:00,65.0,61.0,29.76,SW,226,3.0,5.0,87,0.00,,OVC,0.00,VWS V14.01,2013-09-21 11:30:00,
2013-09-21 07:32:00,64.9,61.3,29.76,WSW,246,1.0,5.0,88,0.00,,CLR,0.00,VWS V14.01,2013-09-21 11:32:00,
2013-09-21 07:37:00,65.2,61.2,29.76,SSW,205,1.0,3.0,87,0.00,,CLR,0.00,VWS V14.01,2013-09-21 11:37:00,
2013-09-21 07:42:00,65.3,61.3,29.76,SW,232,1.0,4.0,87,0.00,,CLR,0.00,VWS V14.01,2013-09-21 11:42:00,
2013-09-21 07:47:00,65.4,61.4,29.75,WSW,249,1.0,4.0,87,0.00,,BKN019,0.00,VWS V14.01,2013-09-21 11:47:00,
2013-09-21 07:52:00,65.5,61.5,29.75,SW,225,2.0,4.0,87,0.00,,BKN019,0.00,VWS V14.01,2013-09-21 11:52:00,
2013-09-21 07:57:00,65.5,61.5,29.75,SW,235,3.0,4.0,87,0.00,,BKN019,0.00,VWS V14.01,2013-09-21 11:57:00,
2013-09-21 08:00:00,65.7,61.7,29.75,SSW,207,1.0,4.0,87,0.00,,OVC,0.00,VWS V14.01,2013-09-21 12:00:00,
2013-09-21 08:03:00,65.7,61.7,29.75,SSW,204,1.0,4.0,87,0.00,,BKN019,0.00,VWS V14.01,2013-09-21 12:03:00,
2013-09-21 08:08:00,65.9,61.9,29.75,SSW,212,3.0,4.0,87,0.00,,BKN019,0.00,VWS V14.01,2013-09-21 12:08:00,
2013-09-21 08:13:00,66.2,61.9,29.74,SSW,196,2.0,6.0,86,0.00,,BKN019,0.00,VWS V14.01,2013-09-21 12:13:00,
2013-09-21 08:18:00,66.4,62.1,29.74,SSW,204,2.0,6.0,86,0.00,,SCT019,0.00,VWS V14.01,2013-09-21 12:18:00,
2013-09-21 08:23:00,66.6,62.3,29.74,SW,235,3.0,6.0,86,0.00,,SCT019,0.00,VWS V14.01,2013-09-21 12:23:00,
2013-09-21 08:28:00,66.9,62.2,29.74,SW,218,2.0,6.0,85,0.00,,SCT019,0.00,VWS V14.01,2013-09-21 12:28:00,
2013-09-21 08:30:00,67.2,62.5,29.74,SSW,210,3.0,6.0,85,0.00,,OVC,0.00,VWS V14.01,2013-09-21 12:30:00,
2013-09-21 08:33:00,67.3,62.6,29.74,SW,230,5.0,5.0,85,0.00,,SCT019,0.00,VWS V14.01,2013-09-21 12:33:00,
2013-09-21 08:38:00,67.7,62.7,29.74,SSW,208,3.0,5.0,84,0.00,,SCT019,0.00,VWS V14.01,2013-09-21 12:38:00,
2013-09-21 08:44:00,67.9,62.9,29.74,SW,232,5.0,7.0,84,0.00,,SCT019,0.00,VWS V14.01,2013-09-21 12:44:00,
2013-09-21 08:49:00,67.9,62.9,29.73,SW,231,4.0,7.0,84,0.00,,SCT019,0.00,VWS V14.01,2013-09-21 12:49:00,
2013-09-21 08:54:00,68.1,63.1,29.74,SSW,207,4.0,7.0,84,0.00,,SCT019,0.00,VWS V14.01,2013-09-21 12:54:00,
2013-09-21 08:59:00,68.4,63.0,29.74,WSW,241,3.0,9.0,83,0.00,,SCT019,0.00,VWS V14.01,2013-09-21 12:59:00,
2013-09-21 09:00:00,68.5,63.5,29.74,WSW,245,4.0,9.0,84,0.00,,OVC,0.00,VWS V14.01,2013-09-21 13:00:00,
2013-09-21 09:04:00,68.5,63.1,29.73,WSW,239,4.0,5.0,83,0.00,,OVC019,0.00,VWS V14.01,2013-09-21 13:04:00,
2013-09-21 09:09:00,68.8,63.4,29.73,SSW,208,3.0,6.0,83,0.00,,OVC019,0.00,VWS V14.01,2013-09-21 13:09:00,
2013-09-21 09:14:00,69.1,63.4,29.73,WSW,252,3.0,8.0,82,0.00,,OVC019,0.00,VWS V14.01,2013-09-21 13:14:00,
2013-09-21 09:19:00,69.3,63.6,29.74,SW,221,5.0,8.0,82,0.00,,OVC019,0.00,VWS V14.01,2013-09-21 13:19:00,
2013-09-21 09:24:00,69.7,63.6,29.73,WSW,239,7.0,8.0,81,0.00,,OVC019,0.00,VWS V14.01,2013-09-21 13:24:00,
2013-09-21 09:29:00,69.7,63.3,29.73,SW,218,4.0,8.0,80,0.00,,OVC019,0.00,VWS V14.01,2013-09-21 13:29:00,
2013-09-21 09:30:00,69.6,63.5,29.73,SW,224,3.0,8.0,81,0.00,,OVC,0.00,VWS V14.01,2013-09-21 13:30:00,
2013-09-21 09:34:00,69.4,63.3,29.73,SW,229,5.0,5.0,81,0.00,,OVC019,0.00,VWS V14.01,2013-09-21 13:34:00,
2013-09-21 09:40:00,69.1,63.4,29.73,WSW,243,3.0,6.0,82,0.00,,OVC019,0.00,VWS V14.01,2013-09-21 13:40:00,
2013-09-21 09:45:00,69.2,63.5,29.73,WSW,242,5.0,6.0,82,0.00,,OVC019,0.00,VWS V14.01,2013-09-21 13:45:00,
2013-09-21 09:50:00,69.2,63.5,29.73,SSW,200,2.0,8.0,82,0.00,,BKN030,0.00,VWS V14.01,2013-09-21 13:50:00,
2013-09-21 09:55:00,69.0,62.9,29.72,SW,224,4.0,8.0,81,0.00,,BKN030,0.00,VWS V14.01,2013-09-21 13:55:00,
2013-09-21 10:00:00,68.8,63.1,29.72,WSW,256,5.0,8.0,82,0.00,,BKN030,0.00,VWS V14.01,2013-09-21 14:00:00,
2013-09-21 10:05:00,68.6,62.9,29.72,WSW,239,3.0,5.0,82,0.00,,BKN030,0.00,VWS V14.01,2013-09-21 14:05:00,
2013-09-21 10:10:00,68.3,62.9,29.72,WSW,258,3.0,8.0,83,0.00,,BKN030,0.00,VWS V14.01,2013-09-21 14:10:00,
2013-09-21 10:15:00,68.2,62.8,29.72,SW,231,3.0,8.0,83,0.00,,BKN019,0.00,VWS V14.01,2013-09-21 14:15:00,
2013-09-21 10:20:00,68.2,62.8,29.72,SW,225,6.0,9.0,83,0.00,,BKN019,0.00,VWS V14.01,2013-09-21 14:20:00,
2013-09-21 10:25:00,68.2,62.8,29.71,SW,225,7.0,9.0,83,0.00,,BKN019,0.00,VWS V14.01,2013-09-21 14:25:00,
2013-09-21 10:30:00,68.1,62.8,29.70,SSW,208,7.0,9.0,83,0.00,,OVC,0.00,VWS V14.01,2013-09-21 14:30:00,
2013-09-21 10:31:00,68.1,62.8,29.71,SW,218,5.0,9.0,83,0.00,,BKN030,0.00,VWS V14.01,2013-09-21 14:31:00,
2013-09-21 10:36:00,68.0,62.7,29.70,WSW,253,4.0,8.0,83,0.00,,BKN030,0.00,VWS V14.01,2013-09-21 14:36:00,
2013-09-21 10:41:00,68.0,62.7,29.70,SW,236,5.0,8.0,83,0.00,,BKN030,0.00,VWS V14.01,2013-09-21 14:41:00,
2013-09-21 10:46:00,67.9,62.5,29.70,SW,232,3.0,8.0,83,0.00,,OVC021,0.00,VWS V14.01,2013-09-21 14:46:00,
2013-09-21 10:51:00,68.0,63.0,29.70,SW,218,6.0,9.0,84,0.00,,OVC021,0.00,VWS V14.01,2013-09-21 14:51:00,
2013-09-21 10:56:00,68.1,62.8,29.70,WSW,238,4.0,9.0,83,0.00,,OVC021,0.00,VWS V14.01,2013-09-21 14:56:00,
2013-09-21 11:00:00,68.3,62.9,29.70,SW,221,6.0,9.0,83,0.00,,OVC,0.00,VWS V14.01,2013-09-21 15:00:00,
2013-09-21 11:01:00,68.3,62.9,29.69,SSW,208,4.0,9.0,83,0.00,,OVC021,0.00,VWS V14.01,2013-09-21 15:01:00,
2013-09-21 11:06:00,68.3,62.6,29.70,WSW,238,5.0,7.0,82,0.00,,OVC021,0.00,VWS V14.01,2013-09-21 15:06:00,
2013-09-21 11:11:00,68.4,62.7,29.69,SW,229,8.0,12.0,82,0.00,,OVC021,0.00,VWS V14.01,2013-09-21 15:11:00,
2013-09-21 11:16:00,68.4,62.3,29.69,SW,225,6.0,12.0,81,0.00,,OVC021,0.00,VWS V14.01,2013-09-21 15:16:00,
2013-09-21 11:22:00,68.4,62.7,29.68,SW,235,5.0,12.0,82,0.00,,OVC021,0.00,VWS V14.01,2013-09-21 15:22:00,
2013-09-21 11:27:00,68.3,62.6,29.68,SW,222,4.0,12.0,82,0.00,,OVC021,0.00,VWS V14.01,2013-09-21 15:27:00,
2013-09-21 11:30:00,68.5,62.8,29.68,WSW,239,4.0,12.0,82,0.00,,OVC,0.00,VWS V14.01,2013-09-21 15:30:00,
2013-09-21 11:32:00,68.4,62.7,29.68,WSW,238,3.0,12.0,82,0.00,,OVC021,0.00,VWS V14.01,2013-09-21 15:32:00,
2013-09-21 11:37:00,68.6,62.5,29.68,WSW,245,4.0,10.0,81,0.00,,OVC021,0.00,VWS V14.01,2013-09-21 15:37:00,
2013-09-21 11:42:00,68.8,63.1,29.68,SW,226,5.0,11.0,82,0.00,,OVC021,0.00,VWS V14.01,2013-09-21 15:42:00,
2013-09-21 11:47:00,68.9,62.8,29.68,SW,233,4.0,11.0,81,0.00,,SCT060,0.00,VWS V14.01,2013-09-21 15:47:00,
2013-09-21 11:52:00,68.9,62.8,29.68,WSW,245,3.0,11.0,81,0.00,,SCT060,0.00,VWS V14.01,2013-09-21 15:52:00,
2013-09-21 11:57:00,69.0,62.9,29.67,SW,232,5.0,11.0,81,0.00,,SCT060,0.00,VWS V14.01,2013-09-21 15:57:00,
2013-09-21 12:00:00,69.2,62.8,29.67,WSW,242,4.0,11.0,80,0.00,,OVC,0.00,VWS V14.01,2013-09-21 16:00:00,
2013-09-21 12:02:00,69.2,62.8,29.67,SW,215,4.0,11.0,80,0.00,,OVC033,0.00,VWS V14.01,2013-09-21 16:02:00,
2013-09-21 12:07:00,69.1,63.0,29.67,SSW,205,2.0,10.0,81,0.00,,OVC033,0.00,VWS V14.01,2013-09-21 16:07:00,
2013-09-21 12:13:00,69.0,62.9,29.67,SW,224,6.0,10.0,81,0.00,,OVC033,0.00,VWS V14.01,2013-09-21 16:13:00,
2013-09-21 12:18:00,69.1,63.0,29.67,SW,229,6.0,10.0,81,0.00,,OVC033,0.00,VWS V14.01,2013-09-21 16:18:00,
2013-09-21 12:23:00,69.1,63.0,29.67,SW,232,6.0,10.0,81,0.00,,OVC033,0.00,VWS V14.01,2013-09-21 16:23:00,
2013-09-21 12:28:00,69.0,62.9,29.67,SW,222,4.0,10.0,81,0.00,,OVC033,0.00,VWS V14.01,2013-09-21 16:28:00,
2013-09-21 12:30:00,69.0,62.9,29.67,SW,232,4.0,10.0,81,0.00,,OVC,0.00,VWS V14.01,2013-09-21 16:30:00,
2013-09-21 12:33:00,68.9,62.8,29.67,SW,235,3.0,5.0,81,0.00,,OVC033,0.00,VWS V14.01,2013-09-21 16:33:00,
2013-09-21 12:38:00,68.8,62.7,29.67,WSW,255,2.0,7.0,81,0.00,,OVC033,0.00,VWS V14.01,2013-09-21 16:38:00,
2013-09-21 12:43:00,68.6,62.9,29.67,WSW,239,4.0,7.0,82,0.00,,OVC033,0.00,VWS V14.01,2013-09-21 16:43:00,
2013-09-21 12:48:00,68.3,62.6,29.67,WSW,241,4.0,8.0,82,0.00,,OVC025,0.00,VWS V14.01,2013-09-21 16:48:00,
2013-09-21 12:53:00,68.1,62.8,29.68,West,266,1.0,8.0,83,0.00,,OVC025,0.00,VWS V14.01,2013-09-21 16:53:00,
2013-09-21 12:59:00,67.9,62.5,29.69,NNE,32,5.0,8.0,83,0.00,,OVC025,0.00,VWS V14.01,2013-09-21 16:59:00,
2013-09-21 13:00:00,66.1,61.1,29.69,West,259,1.0,8.0,84,0.00,,OVC,0.00,VWS V14.01,2013-09-21 17:00:00,
2013-09-21 13:04:00,65.6,60.6,29.69,NW,319,5.0,7.0,84,0.01,,OVC025,0.01,VWS V14.01,2013-09-21 17:04:00,
2013-09-21 13:09:00,63.4,59.8,29.69,WNW,285,0.0,7.0,88,0.04,,OVC025,0.04,VWS V14.01,2013-09-21 17:09:00,
2013-09-21 13:14:00,62.5,59.5,29.69,SSW,210,1.0,7.0,90,0.05,,OVC025,0.05,VWS V14.01,2013-09-21 17:14:00,
2013-09-21 13:19:00,62.0,59.7,29.70,North,6,2.0,7.0,92,0.06,,OVC025,0.06,VWS V14.01,2013-09-21 17:19:00,
2013-09-21 13:24:00,61.6,59.6,29.69,West,276,0.0,7.0,93,0.07,,OVC025,0.07,VWS V14.01,2013-09-21 17:24:00,
2013-09-21 13:29:00,61.5,59.5,29.70,WSW,245,2.0,7.0,93,0.07,,OVC025,0.07,VWS V14.01,2013-09-21 17:29:00,
2013-09-21 13:30:00,61.4,59.7,29.70,WSW,247,1.0,7.0,94,0.07,,OVC,0.07,VWS V14.01,2013-09-21 17:30:00,
2013-09-21 13:34:00,61.4,59.7,29.70,WSW,248,0.0,1.0,94,0.07,,OVC025,0.07,VWS V14.01,2013-09-21 17:34:00,
2013-09-21 13:39:00,61.4,59.7,29.70,West,260,0.0,1.0,94,0.08,,OVC025,0.08,VWS V14.01,2013-09-21 17:39:00,
2013-09-21 13:44:00,61.3,59.9,29.70,NW,314,0.0,5.0,95,0.08,,OVC025,0.08,VWS V14.01,2013-09-21 17:44:00,
2013-09-21 13:50:00,61.3,59.9,29.70,North,1,1.0,5.0,95,0.08,,,0.08,VWS V14.01,2013-09-21 17:50:00,
2013-09-21 13:55:00,61.2,59.8,29.69,North,3,0.0,5.0,95,0.09,,,0.09,VWS V14.01,2013-09-21 17:55:00,
2013-09-21 14:00:00,61.2,59.8,29.70,WSW,255,1.0,5.0,95,0.09,,,0.09,VWS V14.01,2013-09-21 18:00:00,
2013-09-21 14:05:00,61.1,59.7,29.69,WSW,246,0.0,2.0,95,0.10,,,0.10,VWS V14.01,2013-09-21 18:05:00,
2013-09-21 14:10:00,61.1,59.7,29.69,WSW,245,0.0,2.0,95,0.10,,,0.10,VWS V14.01,2013-09-21 18:10:00,
2013-09-21 14:15:00,61.1,59.7,29.69,NNW,329,0.0,2.0,95,0.11,,OVC023,0.11,VWS V14.01,2013-09-21 18:15:00,
2013-09-21 14:20:00,61.0,59.6,29.69,West,267,0.0,2.0,95,0.11,,OVC023,0.11,VWS V14.01,2013-09-21 18:20:00,
2013-09-21 14:25:00,61.1,60.0,29.70,West,267,0.0,2.0,96,0.12,,OVC023,0.12,VWS V14.01,2013-09-21 18:25:00,
2013-09-21 14:30:00,61.0,59.8,29.70,West,278,0.0,2.0,96,0.14,,OVC,0.14,VWS V14.01,2013-09-21 18:30:00,
2013-09-21 14:31:00,61.0,59.6,29.70,West,259,0.0,2.0,95,0.13,,,0.13,VWS V14.01,2013-09-21 18:31:00,
2013-09-21 14:36:00,61.0,59.9,29.70,West,264,1.0,2.0,96,0.07,,,0.14,VWS V14.01,2013-09-21 18:36:00,
2013-09-21 14:41:00,60.8,59.4,29.69,NNE,15,1.0,3.0,95,0.08,,,0.15,VWS V14.01,2013-09-21 18:41:00,
2013-09-21 14:46:00,60.7,59.3,29.69,West,280,1.0,6.0,95,0.09,,RA,0.16,VWS V14.01,2013-09-21 18:46:00,
2013-09-21 14:51:00,60.7,59.6,29.70,WSW,242,1.0,6.0,96,0.09,,RA,0.16,VWS V14.01,2013-09-21 18:51:00,
2013-09-21 14:56:00,60.6,59.2,29.70,West,266,0.0,6.0,95,0.10,,RA,0.17,VWS V14.01,2013-09-21 18:56:00,
2013-09-21 15:00:00,60.5,59.1,29.70,NW,312,0.0,6.0,95,0.12,,OVC,0.19,VWS V14.01,2013-09-21 19:00:00,
2013-09-21 15:01:00,60.5,59.1,29.70,WSW,256,2.0,6.0,95,0.11,,-RA,0.18,VWS V14.01,2013-09-21 19:01:00,
2013-09-21 15:06:00,60.5,59.4,29.70,NW,307,2.0,5.0,96,0.10,,-RA,0.19,VWS V14.01,2013-09-21 19:06:00,
2013-09-21 15:11:00,60.4,59.3,29.70,West,266,0.0,5.0,96,0.12,,-RA,0.21,VWS V14.01,2013-09-21 19:11:00,
2013-09-21 15:16:00,60.4,59.3,29.70,West,259,1.0,5.0,96,0.13,,-RA,0.22,VWS V14.01,2013-09-21 19:16:00,
2013-09-21 15:22:00,60.4,59.3,29.71,West,267,0.0,5.0,96,0.14,,-RA,0.23,VWS V14.01,2013-09-21 19:22:00,
2013-09-21 15:27:00,60.5,59.4,29.70,NNE,23,2.0,5.0,96,0.16,,-RA,0.25,VWS V14.01,2013-09-21 19:27:00,
2013-09-21 15:30:00,60.4,59.3,29.70,NNE,20,2.0,5.0,96,0.18,,OVC,0.27,VWS V14.01,2013-09-21 19:30:00,
2013-09-21 15:32:00,60.4,59.3,29.70,NNE,20,0.0,5.0,96,0.18,,-RA,0.27,VWS V14.01,2013-09-21 19:32:00,
2013-09-21 15:37:00,60.3,59.2,29.70,West,275,0.0,3.0,96,0.14,,-RA,0.28,VWS V14.01,2013-09-21 19:37:00,
2013-09-21 15:42:00,60.3,59.2,29.70,West,276,0.0,3.0,96,0.15,,-RA,0.29,VWS V14.01,2013-09-21 19:42:00,
2013-09-21 15:47:00,60.3,59.2,29.71,West,267,0.0,3.0,96,0.17,, +RA,0.31,VWS V14.01,2013-09-21 19:47:00,
2013-09-21 15:52:00,60.3,59.2,29.71,West,266,0.0,3.0,96,0.18,, +RA,0.32,VWS V14.01,2013-09-21 19:52:00,
2013-09-21 15:57:00,60.3,59.2,29.71,West,263,0.0,3.0,96,0.19,, +RA,0.33,VWS V14.01,2013-09-21 19:57:00,
2013-09-21 16:00:00,60.2,59.1,29.71,NW,323,0.0,3.0,96,0.20,,OVC,0.34,VWS V14.01,2013-09-21 20:00:00,
2013-09-21 16:03:00,60.2,59.1,29.71,NW,323,0.0,3.0,96,0.20,,RA,0.34,VWS V14.01,2013-09-21 20:03:00,
2013-09-21 16:08:00,60.1,59.0,29.70,NW,318,0.0,2.0,96,0.15,,RA,0.34,VWS V14.01,2013-09-21 20:08:00,
2013-09-21 16:13:00,60.1,59.0,29.70,NW,316,0.0,2.0,96,0.16,,RA,0.35,VWS V14.01,2013-09-21 20:13:00,
2013-09-21 16:18:00,60.1,59.0,29.70,WSW,242,0.0,2.0,96,0.17,,RA,0.36,VWS V14.01,2013-09-21 20:18:00,
2013-09-21 16:23:00,60.1,59.0,29.70,WSW,242,0.0,2.0,96,0.18,,RA,0.37,VWS V14.01,2013-09-21 20:23:00,
2013-09-21 16:28:00,60.1,59.0,29.70,West,259,0.0,2.0,96,0.18,,RA,0.37,VWS V14.01,2013-09-21 20:28:00,
2013-09-21 16:30:00,60.1,59.0,29.70,West,259,0.0,2.0,96,0.19,,OVC,0.38,VWS V14.01,2013-09-21 20:30:00,
2013-09-21 16:33:00,60.1,59.0,29.70,West,259,0.0,0.0,96,0.11,,RA,0.38,VWS V14.01,2013-09-21 20:33:00,
2013-09-21 16:38:00,60.1,59.0,29.70,West,259,0.0,0.0,96,0.12,,RA,0.39,VWS V14.01,2013-09-21 20:38:00,
2013-09-21 16:43:00,60.0,58.9,29.69,West,259,0.0,0.0,96,0.12,,RA,0.39,VWS V14.01,2013-09-21 20:43:00,
2013-09-21 16:48:00,60.0,58.9,29.70,West,259,0.0,0.0,96,0.13,,RA,0.40,VWS V14.01,2013-09-21 20:48:00,
2013-09-21 16:54:00,60.0,58.9,29.70,West,259,0.0,0.0,96,0.13,,RA,0.40,VWS V14.01,2013-09-21 20:54:00,
2013-09-21 16:59:00,60.0,58.9,29.70,West,259,0.0,0.0,96,0.13,,RA,0.40,VWS V14.01,2013-09-21 20:59:00,
2013-09-21 17:00:00,60.0,58.9,29.70,West,259,0.0,0.0,96,0.14,,OVC,0.41,VWS V14.01,2013-09-21 21:00:00,
2013-09-21 17:04:00,60.0,59.2,29.70,West,259,0.0,0.0,97,0.07,,RA,0.41,VWS V14.01,2013-09-21 21:04:00,
2013-09-21 17:09:00,60.0,59.2,29.70,West,259,0.0,0.0,97,0.08,,RA,0.42,VWS V14.01,2013-09-21 21:09:00,
2013-09-21 17:14:00,60.0,59.2,29.70,West,259,0.0,0.0,97,0.08,,RA,0.42,VWS V14.01,2013-09-21 21:14:00,
2013-09-21 17:19:00,60.1,59.2,29.70,West,259,0.0,0.0,97,0.09,,RA,0.43,VWS V14.01,2013-09-21 21:19:00,
2013-09-21 17:24:00,60.1,59.2,29.70,West,262,0.0,0.0,97,0.09,,RA,0.43,VWS V14.01,2013-09-21 21:24:00,
2013-09-21 17:30:00,60.0,59.2,29.70,West,262,0.0,0.0,97,0.10,,RA,0.44,VWS V14.01,2013-09-21 21:30:00,
2013-09-21 17:35:00,59.9,59.0,29.70,West,262,0.0,0.0,97,0.06,,RA,0.44,VWS V14.01,2013-09-21 21:35:00,
2013-09-21 17:40:00,59.8,59.0,29.71,West,262,0.0,0.0,97,0.07,,RA,0.45,VWS V14.01,2013-09-21 21:40:00,
2013-09-21 17:45:00,59.8,59.0,29.70,WSW,254,0.0,0.0,97,0.08,,RA,0.46,VWS V14.01,2013-09-21 21:45:00,
2013-09-21 17:50:00,59.8,59.0,29.70,WSW,255,0.0,0.0,97,0.08,,RA,0.46,VWS V14.01,2013-09-21 21:50:00,
2013-09-21 17:55:00,59.8,59.0,29.70,WSW,254,0.0,0.0,97,0.09,,RA,0.47,VWS V14.01,2013-09-21 21:55:00,
2013-09-21 18:00:00,59.9,59.0,29.70,WSW,255,0.0,0.0,97,0.09,,RA,0.47,VWS V14.01,2013-09-21 22:00:00,
2013-09-21 18:05:00,59.9,59.0,29.70,WSW,254,0.0,0.0,97,0.07,,RA,0.48,VWS V14.01,2013-09-21 22:05:00,
2013-09-21 18:10:00,59.8,59.0,29.70,WSW,254,0.0,0.0,97,0.07,,RA,0.48,VWS V14.01,2013-09-21 22:10:00,
2013-09-21 18:15:00,59.8,59.0,29.70,WSW,255,0.0,0.0,97,0.08,,RA,0.49,VWS V14.01,2013-09-21 22:15:00,
2013-09-21 18:20:00,59.7,58.8,29.70,WSW,254,0.0,0.0,97,0.08,,RA,0.49,VWS V14.01,2013-09-21 22:20:00,
2013-09-21 18:26:00,59.6,58.8,29.70,WSW,254,0.0,0.0,97,0.09,,RA,0.50,VWS V14.01,2013-09-21 22:26:00,
2013-09-21 18:30:00,59.6,58.8,29.69,WSW,254,0.0,0.0,97,0.09,,OVC,0.50,VWS V14.01,2013-09-21 22:30:00,
2013-09-21 18:31:00,59.6,58.8,29.69,WSW,254,0.0,0.0,97,0.09,,RA,0.50,VWS V14.01,2013-09-21 22:31:00,
2013-09-21 18:36:00,59.5,58.7,29.69,WSW,254,0.0,0.0,97,0.07,,RA,0.51,VWS V14.01,2013-09-21 22:36:00,
2013-09-21 18:41:00,59.5,58.7,29.69,WSW,255,0.0,0.0,97,0.07,,RA,0.51,VWS V14.01,2013-09-21 22:41:00,
2013-09-21 18:46:00,59.4,58.5,29.69,WSW,254,0.0,0.0,97,0.08,,RA,0.52,VWS V14.01,2013-09-21 22:46:00,
2013-09-21 18:51:00,59.3,58.5,29.69,WSW,255,0.0,0.0,97,0.08,,RA,0.52,VWS V14.01,2013-09-21 22:51:00,
2013-09-21 18:56:00,59.3,58.5,29.69,SW,222,0.0,0.0,97,0.10,,RA,0.54,VWS V14.01,2013-09-21 22:56:00,
2013-09-21 19:00:00,59.2,58.3,29.69,SW,221,0.0,0.0,97,0.11,,OVC,0.55,VWS V14.01,2013-09-21 23:00:00,
2013-09-21 19:01:00,59.3,58.5,29.69,SW,221,0.0,0.0,97,0.11,,RA,0.55,VWS V14.01,2013-09-21 23:01:00,
2013-09-21 19:06:00,59.2,58.3,29.69,SW,221,0.0,0.0,97,0.07,,RA,0.55,VWS V14.01,2013-09-21 23:06:00,
2013-09-21 19:11:00,59.2,58.3,29.68,SSW,207,0.0,0.0,97,0.08,,RA,0.56,VWS V14.01,2013-09-21 23:11:00,
2013-09-21 19:16:00,59.1,58.2,29.68,SW,222,0.0,0.0,97,0.08,,RA,0.56,VWS V14.01,2013-09-21 23:16:00,
2013-09-21 19:21:00,59.0,58.2,29.68,SSE,161,0.0,0.0,97,0.09,,RA,0.57,VWS V14.01,2013-09-21 23:21:00,
2013-09-21 19:27:00,59.0,58.2,29.68,SSE,160,0.0,0.0,97,0.09,,RA,0.57,VWS V14.01,2013-09-21 23:27:00,
2013-09-21 19:30:00,59.0,58.2,29.69,SW,215,0.0,0.0,97,0.10,,OVC,0.58,VWS V14.01,2013-09-21 23:30:00,
2013-09-21 19:32:00,59.0,58.2,29.68,SW,231,0.0,0.0,97,0.10,,RA,0.58,VWS V14.01,2013-09-21 23:32:00,
2013-09-21 19:37:00,59.0,58.2,29.68,SW,215,0.0,0.0,97,0.08,,RA,0.58,VWS V14.01,2013-09-21 23:37:00,
2013-09-21 19:42:00,59.0,58.2,29.68,SW,215,0.0,0.0,97,0.08,,RA,0.58,VWS V14.01,2013-09-21 23:42:00,
2013-09-21 19:47:00,59.0,58.2,29.69,SW,226,0.0,0.0,97,0.08,,-RA,0.58,VWS V14.01,2013-09-21 23:47:00,
2013-09-21 19:52:00,59.0,58.2,29.69,SW,226,0.0,0.0,97,0.08,,-RA,0.58,VWS V14.01,2013-09-21 23:52:00,
2013-09-21 19:57:00,59.0,58.2,29.69,SW,229,0.0,0.0,97,0.08,,-RA,0.58,VWS V14.01,2013-09-21 23:57:00,
2013-09-21 20:00:00,59.0,58.2,29.69,SW,229,0.0,0.0,97,0.08,,OVC,0.58,VWS V14.01,2013-09-22 00:00:00,
2013-09-21 20:03:00,59.0,58.2,29.69,SW,229,0.0,0.0,97,0.08,,-RA,0.58,VWS V14.01,2013-09-22 00:03:00,
2013-09-21 20:08:00,58.9,58.0,29.69,SW,230,0.0,0.0,97,0.03,,-RA,0.58,VWS V14.01,2013-09-22 00:08:00,
2013-09-21 20:13:00,58.8,58.0,29.69,SW,228,0.0,0.0,97,0.03,,-RA,0.58,VWS V14.01,2013-09-22 00:13:00,
2013-09-21 20:18:00,58.8,58.0,29.69,SW,229,0.0,0.0,97,0.03,,-RA,0.58,VWS V14.01,2013-09-22 00:18:00,
2013-09-21 20:23:00,58.7,57.8,29.69,SW,229,0.0,0.0,97,0.03,,-RA,0.58,VWS V14.01,2013-09-22 00:23:00,
2013-09-21 20:28:00,58.6,57.8,29.69,SW,228,0.0,0.0,97,0.03,,-RA,0.58,VWS V14.01,2013-09-22 00:28:00,
2013-09-21 20:30:00,58.6,57.8,29.70,SW,229,0.0,0.0,97,0.03,,OVC,0.58,VWS V14.01,2013-09-22 00:30:00,
2013-09-21 20:33:00,58.5,57.7,29.70,SW,228,0.0,0.0,97,0.00,,-RA,0.58,VWS V14.01,2013-09-22 00:33:00,
2013-09-21 20:38:00,58.5,57.7,29.70,SW,228,0.0,0.0,97,0.00,,-RA,0.58,VWS V14.01,2013-09-22 00:38:00,
2013-09-21 20:43:00,58.4,57.8,29.70,SW,228,0.0,0.0,98,0.00,,-RA,0.58,VWS V14.01,2013-09-22 00:43:00,
2013-09-21 20:48:00,58.4,57.6,29.70,SW,228,0.0,0.0,97,0.00,,-RA,0.58,VWS V14.01,2013-09-22 00:48:00,
2013-09-21 20:53:00,58.3,57.5,29.70,WSW,242,0.0,0.0,97,0.00,,-RA,0.58,VWS V14.01,2013-09-22 00:53:00,
2013-09-21 20:59:00,58.2,57.4,29.70,WSW,242,0.0,0.0,97,0.00,,-RA,0.58,VWS V14.01,2013-09-22 00:59:00,
2013-09-21 21:00:00,58.2,57.4,29.70,WSW,245,0.0,0.0,97,0.00,,OVC,0.58,VWS V14.01,2013-09-22 01:00:00,
2013-09-21 21:04:00,58.2,57.4,29.70,WSW,245,0.0,0.0,97,0.00,,-RA,0.58,VWS V14.01,2013-09-22 01:04:00,
2013-09-21 21:09:00,58.0,57.2,29.70,WSW,245,0.0,0.0,97,0.00,,-RA,0.58,VWS V14.01,2013-09-22 01:09:00,
2013-09-21 21:14:00,57.9,57.1,29.70,WSW,246,0.0,0.0,97,0.00,,-RA,0.58,VWS V14.01,2013-09-22 01:14:00,
2013-09-21 21:19:00,57.7,56.9,29.70,WSW,246,0.0,0.0,97,0.00,,-RA,0.58,VWS V14.01,2013-09-22 01:19:00,
2013-09-21 21:24:00,57.7,56.9,29.70,WSW,246,0.0,0.0,97,0.00,,-RA,0.58,VWS V14.01,2013-09-22 01:24:00,
2013-09-21 21:29:00,57.6,57.0,29.70,SW,232,0.0,0.0,98,0.00,,-RA,0.58,VWS V14.01,2013-09-22 01:29:00,
2013-09-21 21:30:00,57.6,57.0,29.70,SW,235,0.0,0.0,98,0.00,,OVC,0.58,VWS V14.01,2013-09-22 01:30:00,
2013-09-21 21:34:00,57.6,57.0,29.70,SW,235,0.0,0.0,98,0.00,,-RA,0.58,VWS V14.01,2013-09-22 01:34:00,
2013-09-21 21:39:00,57.7,57.1,29.70,WSW,257,0.0,0.0,98,0.00,,-RA,0.58,VWS V14.01,2013-09-22 01:39:00,
2013-09-21 21:44:00,57.8,57.2,29.70,WSW,255,0.0,0.0,98,0.00,,-RA,0.58,VWS V14.01,2013-09-22 01:44:00,
2013-09-21 21:50:00,57.9,57.3,29.70,WSW,253,0.0,0.0,98,0.00,,OVC065,0.58,VWS V14.01,2013-09-22 01:50:00,
2013-09-21 21:55:00,57.9,57.3,29.70,WSW,244,0.0,0.0,98,0.00,,OVC065,0.58,VWS V14.01,2013-09-22 01:55:00,
2013-09-21 22:00:00,57.8,57.2,29.70,WSW,247,0.0,0.0,98,0.00,,OVC065,0.58,VWS V14.01,2013-09-22 02:00:00,
2013-09-21 22:05:00,57.7,57.1,29.71,West,263,0.0,0.0,98,0.00,,OVC050,0.58,VWS V14.01,2013-09-22 02:05:00,
2013-09-21 22:10:00,57.7,57.1,29.71,WSW,255,0.0,0.0,98,0.00,,OVC050,0.58,VWS V14.01,2013-09-22 02:10:00,
2013-09-21 22:15:00,57.6,57.0,29.71,WSW,256,0.0,0.0,98,0.00,,OVC050,0.58,VWS V14.01,2013-09-22 02:15:00,
2013-09-21 22:20:00,57.6,57.0,29.71,WSW,250,0.0,0.0,98,0.00,,OVC050,0.58,VWS V14.01,2013-09-22 02:20:00,
2013-09-21 22:25:00,57.6,57.0,29.72,WNW,295,2.0,2.0,98,0.01,,OVC050,0.59,VWS V14.01,2013-09-22 02:25:00,
2013-09-21 22:30:00,57.5,56.7,29.74,SW,226,6.0,6.0,97,0.01,,OVC050,0.59,VWS V14.01,2013-09-22 02:30:00,
2013-09-21 22:35:00,56.5,55.4,29.74,NNW,327,2.0,10.0,96,0.01,,OVC050,0.59,VWS V14.01,2013-09-22 02:35:00,
2013-09-21 22:41:00,56.0,54.9,29.74,NNW,328,4.0,11.0,96,0.01,,OVC050,0.59,VWS V14.01,2013-09-22 02:41:00,
2013-09-21 22:46:00,55.7,54.6,29.74,NNW,333,7.0,11.0,96,0.01,,OVC055,0.59,VWS V14.01,2013-09-22 02:46:00,
2013-09-21 22:51:00,55.5,54.4,29.74,NNW,340,3.0,11.0,96,0.01,,OVC055,0.59,VWS V14.01,2013-09-22 02:51:00,
2013-09-21 22:56:00,55.5,54.4,29.74,WNW,297,2.0,11.0,96,0.01,,OVC055,0.59,VWS V14.01,2013-09-22 02:56:00,
2013-09-21 23:00:00,55.4,54.3,29.75,West,259,0.0,11.0,96,0.01,,OVC,0.59,VWS V14.01,2013-09-22 03:00:00,
2013-09-21 23:01:00,55.4,54.3,29.75,West,269,1.0,11.0,96,0.01,,OVC055,0.59,VWS V14.01,2013-09-22 03:01:00,
2013-09-21 23:06:00,55.4,54.3,29.75,West,278,1.0,3.0,96,0.01,,OVC055,0.59,VWS V14.01,2013-09-22 03:06:00,
2013-09-21 23:11:00,55.3,54.2,29.75,NNW,331,1.0,3.0,96,0.01,,OVC055,0.59,VWS V14.01,2013-09-22 03:11:00,
2013-09-21 23:16:00,55.1,54.0,29.75,West,267,2.0,4.0,96,0.01,,OVC055,0.59,VWS V14.01,2013-09-22 03:16:00,
2013-09-21 23:21:00,54.9,53.5,29.75,West,277,1.0,4.0,95,0.01,,OVC055,0.59,VWS V14.01,2013-09-22 03:21:00,
2013-09-21 23:26:00,54.6,53.2,29.76,NE,39,1.0,6.0,95,0.01,,OVC055,0.59,VWS V14.01,2013-09-22 03:26:00,
2013-09-21 23:30:00,54.3,52.9,29.76,West,262,1.0,6.0,95,0.01,,OVC,0.59,VWS V14.01,2013-09-22 03:30:00,
2013-09-21 23:31:00,54.4,53.0,29.76,West,269,0.0,6.0,95,0.01,,OVC055,0.59,VWS V14.01,2013-09-22 03:31:00,
2013-09-21 23:37:00,54.2,52.5,29.76,WSW,251,1.0,3.0,94,0.00,,OVC055,0.59,VWS V14.01,2013-09-22 03:37:00,
2013-09-21 23:42:00,54.2,52.5,29.76,West,275,0.0,3.0,94,0.00,,OVC055,0.59,VWS V14.01,2013-09-22 03:42:00,
2013-09-21 23:47:00,54.2,52.5,29.76,West,268,1.0,3.0,94,0.00,,OVC014,0.59,VWS V14.01,2013-09-22 03:47:00,
2013-09-21 23:52:00,54.2,52.5,29.76,West,262,1.0,3.0,94,0.00,,OVC014,0.59,VWS V14.01,2013-09-22 03:52:00,
2013-09-21 23:57:00,54.1,52.4,29.76,WNW,283,1.0,6.0,94,0.00,,OVC014,0.59,VWS V14.01,2013-09-22 03:57:00,